DW9006 Weather Reports


time (UTC)temp
F
wind
direction
speed
knots
gust
knots
rain 1hr
in
rain 24hr
in
rain mn
in
humidity
%
barometer
mb
20211017143102 58 30 0.0 5.2 0.00 0.00 0.00 64 1024.5
20211017141608 56 317 0.0 2.6 0.00 0.00 0.00 71 1024.3
20211017140020 55 318 0.0 3.5 0.00 0.00 0.00 72 1024.2
20211017134552 54 17 0.0 3.5 0.00 0.00 0.00 75 1024.1
20211017133111 52 25 0.0 0.9 0.00 0.00 0.00 81 1024.1
20211017131619 50 346 0.0 0.0 0.00 0.00 0.00 81 1024.0
20211017090057 47 292 0.0 0.0 0.00 0.02 0.00 91 1022.4
20211017084558 47 292 0.0 0.0 0.00 0.08 0.00 91 1022.4
20211017083109 47 292 0.0 0.0 0.00 0.08 0.00 91 1022.3
20211017081605 47 292 0.0 0.0 0.00 0.08 0.00 91 1022.1
20211017080137 46 292 0.0 0.0 0.00 0.08 0.00 92 1022.1
20211017074546 46 292 0.0 0.0 0.00 0.10 0.08 92 1022.2
20211017073023 46 292 0.0 0.0 0.00 0.10 0.08 93 1022.2
20211017071528 46 292 0.0 0.0 0.00 0.10 0.08 92 1022.2
20211017070121 47 292 0.0 0.0 0.00 0.10 0.08 92 1022.3
20211017064631 47 292 0.0 0.0 0.00 0.10 0.08 91 1022.2
20211017063100 47 292 0.0 0.0 0.00 0.10 0.08 92 1022.2
20211017061738 47 292 0.0 0.0 0.00 0.10 0.08 91 1022.2
20211017060050 47 292 0.0 0.0 0.00 0.10 0.08 92 1022.1
20211017054613 47 292 0.0 0.0 0.00 0.10 0.08 92 1021.9
20211017053110 47 292 0.0 0.0 0.00 0.10 0.08 91 1021.9
20211017051632 47 292 0.0 0.0 0.00 0.10 0.08 90 1021.8
20211017050058 48 292 0.0 0.0 0.00 0.10 0.08 89 1021.8
20211017044611 48 292 0.0 0.0 0.00 0.10 0.08 89 1021.8
20211017043107 49 292 0.0 0.0 0.00 0.10 0.08 88 1021.8
20211017041543 49 292 0.0 0.0 0.00 0.10 0.08 88 1021.8
20211017040110 49 292 0.0 0.0 0.00 0.10 0.08 87 1021.8
20211017034538 49 292 0.0 0.0 0.00 0.10 0.08 89 1021.7
20211017033024 49 292 0.0 0.0 0.00 0.10 0.08 87 1021.7
20211017011513 53 292 0.0 0.0 0.00 0.10 0.08 82 1020.9
20211017010010 53 292 0.0 0.0 0.00 0.10 0.08 80 1020.9
20211017004517 54 292 0.0 0.0 0.00 0.10 0.08 79 1020.8
20211017003101 55 292 0.0 0.0 0.00 0.10 0.08 80 1020.6
20211017001748 56 292 0.0 0.0 0.00 0.10 0.08 72 1020.5
20211017000026 57 292 0.0 0.0 0.00 0.10 0.08 70 1020.1
20211016234528 58 292 0.0 0.0 0.00 0.10 0.08 65 1020.0
20211016233100 60 292 0.0 0.0 0.00 0.10 0.08 62 1019.9
20211016231635 62 269 0.0 0.0 0.00 0.10 0.08 53 1019.8
20211016230055 63 304 0.0 1.7 0.00 0.10 0.08 50 1019.5
20211016224610 63 294 0.0 0.0 0.00 0.10 0.08 48 1019.3
20211016223059 64 325 0.0 8.7 0.00 0.10 0.08 46 1019.3
20211016221545 65 304 0.0 0.9 0.00 0.10 0.08 45 1019.2
20211016220055 66 331 0.0 5.2 0.00 0.10 0.08 44 1019.0
20211016214624 67 317 0.0 6.1 0.00 0.10 0.08 43 1018.9
20211016213123 67 307 0.0 3.5 0.00 0.10 0.08 44 1018.8
20211016211547 67 311 0.0 4.3 0.00 0.10 0.08 43 1018.7
20211016210046 67 193 0.9 7.8 0.00 0.10 0.08 43 1018.7
20211016204546 67 310 1.7 9.6 0.00 0.10 0.08 40 1018.6
20211016203033 68 290 0.0 5.2 0.00 0.10 0.08 43 1018.5
20211016201526 68 281 0.0 7.0 0.00 0.10 0.08 46 1018.4
20211016200106 68 305 0.0 5.2 0.00 0.10 0.08 46 1018.4
20211016194551 68 269 0.0 8.7 0.00 0.10 0.08 45 1018.4
20211016151514 63 57 0.0 5.2 0.00 0.10 0.08 75 1019.0
20211016150055 62 57 0.0 7.0 0.00 0.10 0.08 77 1019.1
20211016144703 61 258 1.7 7.0 0.00 0.10 0.08 81 1018.9